Total_Precipitation_Accumulation
3.44 3.71 3.82 4.15 4.23 4.39 4.44 4.14 3.49 3.22 3.08 2.83 2.59 2.48 2.44 2.39 2.54 2.69 2.97 2.96 2.89 3.10 3.47 3.72 3.75 3.68 3.71 3.66 3.69 3.61 3.47 3.36 3.25 3.09 2.96 2.87 2.87 2.98 3.01 3.08 2.96 2.92 2.88
3.96 4.11 4.18 4.48 4.40 4.24 4.40 4.26 3.76 3.49 3.27 3.11 2.71 2.42 2.52 2.73 2.68 2.73 3.06 3.06 2.88 2.89 3.24 3.69 4.02 4.22 4.31 4.26 4.08 3.79 3.67 3.56 3.56 3.43 3.25 3.01 2.95 2.91 2.88 3.00 3.07 2.96 2.92
4.54 4.46 4.64 4.80 4.65 4.42 4.48 4.42 4.24 3.84 3.62 3.50 3.18 2.83 2.78 2.88 2.92 3.13 3.30 3.24 3.17 3.12 3.30 3.54 3.85 4.16 4.40 4.56 4.44 4.15 3.91 3.81 3.82 3.81 3.70 3.37 3.20 3.03 2.97 2.91 2.91 2.98 2.84
5.02 5.13 5.05 4.91 4.78 4.59 4.58 4.74 4.53 4.17 4.02 3.99 3.71 3.26 2.95 3.08 3.20 3.29 3.40 3.39 3.51 3.41 3.48 3.40 3.51 3.79 4.11 4.41 4.57 4.60 4.41 4.27 4.11 3.98 3.93 3.78 3.60 3.39 3.15 3.13 3.01 2.97 2.91
5.11 5.29 5.36 5.30 5.07 4.99 4.95 4.59 4.60 4.44 4.41 4.27 3.74 3.47 3.09 2.99 3.25 3.24 3.35 3.37 3.55 3.65 3.66 3.38 3.45 3.80 4.03 4.32 4.62 4.87 4.94 4.83 4.55 4.39 4.30 4.20 4.02 3.74 3.48 3.31 3.24 3.21 3.14
5.52 5.57 5.51 5.45 5.34 5.33 5.27 5.09 4.99 4.89 4.63 4.42 3.89 3.61 3.34 3.06 3.10 3.08 3.11 3.27 3.29 3.28 3.37 3.37 3.39 3.37 3.70 4.03 4.42 4.81 5.16 5.36 5.07 4.70 4.53 4.53 4.42 4.08 3.86 3.67 3.53 3.45 3.42
6.03 5.95 5.86 5.79 5.52 5.39 5.34 5.26 5.08 4.94 4.64 4.46 4.31 3.99 3.53 3.10 3.02 2.93 2.87 3.00 3.00 2.94 3.03 3.12 3.36 3.32 3.29 3.64 3.84 4.26 4.74 5.27 5.47 5.26 4.98 4.82 4.66 4.39 4.10 3.84 3.77 3.74 3.65
6.68 6.42 6.50 6.25 5.84 5.62 5.36 5.15 4.98 4.72 4.38 4.36 4.39 4.50 4.11 3.75 3.06 2.58 2.57 2.55 2.51 2.55 2.66 2.75 2.93 3.06 3.02 3.22 3.32 3.58 3.91 4.26 4.75 5.10 5.10 4.94 4.73 4.51 4.29 4.09 3.91 3.89 3.97
6.77 6.43 6.27 6.20 5.88 5.32 5.14 4.97 4.73 4.59 4.37 4.26 4.14 4.36 4.18 3.86 3.41 2.98 2.56 2.36 2.37 2.49 2.54 2.60 2.60 2.63 2.63 2.72 2.73 2.90 3.11 3.25 3.75 4.33 4.69 4.66 4.55 4.41 4.31 4.29 4.26 4.11 4.07
6.38 6.05 5.86 5.57 5.32 4.99 4.85 4.46 4.36 4.43 4.44 4.18 4.04 3.73 3.45 3.33 3.46 3.32 2.88 2.61 2.51 2.42 2.35 2.26 2.27 2.36 2.40 2.45 2.49 2.46 2.52 2.64 2.97 3.39 3.86 4.11 4.14 4.12 4.08 4.05 4.06 4.08 4.18
5.77 5.36 5.14 4.85 4.57 4.35 4.16 3.89 3.86 3.94 4.06 3.99 3.89 3.77 3.59 3.42 3.20 3.12 3.05 2.97 2.84 2.54 2.33 2.24 2.19 2.18 2.16 2.19 2.23 2.23 2.34 2.29 2.40 2.59 2.86 3.17 3.41 3.61 3.73 3.82 3.90 4.06 4.26
5.02 4.75 4.49 4.23 3.87 3.68 3.50 3.36 3.26 3.24 3.41 3.51 3.52 3.51 3.55 3.52 3.40 3.34 3.14 2.98 2.90 2.65 2.45 2.30 2.20 2.15 2.07 2.12 2.15 2.36 2.22 2.22 2.28 2.28 2.37 2.52 2.65 2.92 3.16 3.41 3.62 3.92 4.28
3.87 3.76 3.60 3.41 3.16 3.07 3.02 3.04 3.02 2.96 3.02 3.11 3.19 3.23 3.25 3.24 3.26 3.35 3.48 3.20 2.92 2.59 2.51 2.32 2.15 2.15 2.10 2.16 2.18 2.20 1.98 1.92 1.92 1.91 2.04 2.19 2.31 2.56 2.72 2.81 3.01 3.26 3.52
2.83 2.81 2.83 2.62 2.55 2.56 2.54 2.69 2.70 2.69 2.76 2.76 2.74 3.00 3.08 2.93 2.92 2.98 3.20 3.28 3.10 2.77 2.49 2.29 2.07 2.00 2.01 2.01 2.16 2.13 1.81 1.87 1.77 1.71 1.69 1.77 1.89 2.04 2.21 2.32 2.51 2.69 2.79
2.47 2.36 2.33 2.31 2.33 2.40 2.40 2.46 2.45 2.36 2.48 2.50 2.48 2.66 2.77 2.67 2.59 2.54 2.67 2.87 3.05 2.96 2.51 2.14 2.05 1.92 1.87 1.91 2.09 1.76 1.70 1.83 1.71 1.58 1.53 1.53 1.64 1.73 1.80 1.83 1.90 2.05 2.23
2.39 2.33 2.22 2.18 2.16 2.12 2.14 2.30 2.26 2.17 2.21 2.21 2.22 2.35 2.39 2.35 2.40 2.34 2.33 2.42 2.65 2.79 2.59 1.97 1.83 1.80 1.87 1.72 1.84 1.62 1.67 1.71 1.53 1.42 1.33 1.28 1.28 1.40 1.48 1.44 1.47 1.57 1.75
2.08 2.06 1.91 1.88 1.82 1.78 1.83 1.99 2.03 2.04 2.02 2.03 1.93 1.93 2.01 2.08 2.24 2.17 2.16 2.20 2.35 2.52 2.54 2.04 1.82 1.84 1.97 2.00 1.94 1.82 1.68 1.54 1.45 1.45 1.29 1.20 1.17 1.19 1.29 1.28 1.28 1.33 1.48
1.78 1.77 1.73 1.61 1.50 1.55 1.71 1.77 1.73 1.77 1.84 1.83 1.78 1.79 1.77 1.86 2.03 2.06 2.13 2.07 2.16 2.35 2.40 2.25 2.00 1.87 1.91 1.92 1.91 1.86 1.59 1.40 1.38 1.48 1.36 1.23 1.21 1.17 1.21 1.24 1.24 1.22 1.20
1.59 1.53 1.54 1.55 1.51 1.46 1.53 1.57 1.56 1.59 1.65 1.72 1.74 1.70 1.63 1.76 1.85 1.86 1.91 1.93 1.95 1.98 2.15 2.08 1.81 1.77 1.74 1.76 1.91 1.85 1.75 1.72 1.36 1.32 1.31 1.19 1.19 1.16 1.13 1.18 1.20 1.18 1.13
1.42 1.33 1.38 1.43 1.43 1.39 1.36 1.38 1.42 1.55 1.69 1.63 1.54 1.54 1.56 1.56 1.58 1.72 1.69 1.81 1.92 2.07 2.10 2.01 1.81 1.70 1.75 1.76 2.02 2.06 1.98 1.80 1.54 1.24 1.25 1.18 1.17 1.12 1.09 1.13 1.10 1.14 1.15
1.38 1.36 1.35 1.33 1.31 1.30 1.22 1.26 1.32 1.38 1.59 1.63 1.53 1.45 1.40 1.42 1.41 1.48 1.40 1.56 1.79 1.96 2.01 2.03 1.93 1.82 1.83 2.03 2.00 1.87 1.86 1.76 1.56 1.34 1.37 1.28 1.28 1.41 1.59 1.62 1.38 1.15 1.16
1.35 1.39 1.37 1.32 1.21 1.07 1.19 1.25 1.21 1.31 1.44 1.50 1.51 1.44 1.34 1.28 1.21 1.22 1.18 1.26 1.49 1.72 1.91 2.07 1.97 1.88 1.84 1.97 2.06 1.96 2.02 2.08 1.89 1.48 1.54 1.49 1.46 1.83 2.18 2.32 1.89 1.30 1.14
1.33 1.38 1.41 1.40 1.27 1.18 1.22 1.18 1.20 1.25 1.38 1.49 1.53 1.54 1.30 1.12 1.25 1.19 1.22 1.22 1.25 1.36 1.64 1.98 2.10 1.95 1.91 2.03 2.23 2.18 2.20 2.22 2.07 1.70 1.79 1.79 1.73 1.98 1.93 2.02 1.97 1.49 1.31
1.38 1.46 1.50 1.45 1.35 1.23 1.20 1.15 1.17 1.18 1.24 1.34 1.40 1.45 1.55 1.51 1.39 1.33 1.28 1.28 1.29 1.33 1.42 1.50 1.75 1.84 1.75 1.85 2.08 2.13 2.20 2.12 1.95 1.88 1.94 2.00 1.82 1.93 1.76 2.06 2.25 2.02 1.76
1.47 1.47 1.45 1.48 1.44 1.35 1.23 1.17 1.21 1.16 1.13 1.14 1.17 1.25 1.37 1.40 1.40 1.33 1.31 1.40 1.44 1.42 1.29 1.37 1.40 1.56 1.69 1.71 1.72 1.89 2.16 2.31 2.17 1.90 1.85 1.94 1.89 2.00 2.10 2.36 2.32 2.28 2.11
1.51 1.45 1.44 1.46 1.44 1.39 1.19 1.05 1.11 1.07 1.10 1.11 1.20 1.25 1.25 1.19 1.29 1.30 1.30 1.52 1.58 1.49 1.54 1.69 1.79 1.84 1.80 1.74 1.64 1.74 2.12 2.37 2.30 2.14 1.86 2.04 2.18 2.37 2.65 2.65 2.49 2.27 2.19